BCS1477 ENBR-ENVA

Flight info

Callsign BCS1477
Flight time 0h 49m
Altitude 35000
Route INTUM DCT NELSU
Aircraft A333/H-SDE3GHIJ2J3J5M1RVWXY/LB2D1

Departure

Time 2026-05-06 17:26
Airport Bergen Airport, Flesland (ENBR)

Arrival

Time 2026-05-06 18:15
Airport Trondheim Airport, Værnes (ENVA)
Time Latitude Longitude Altitude Speed Heading
2026-05-06 16:43 60.28620 5.22636 173 ft 0 kts 81°
2026-05-06 17:13 60.28620 5.22632 173 ft 0 kts 81°
2026-05-06 17:13 60.28617 5.22601 173 ft 2 kts 75°
2026-05-06 17:13 60.28612 5.22569 172 ft 2 kts 66°
2026-05-06 17:14 60.28604 5.22540 172 ft 2 kts 49°
2026-05-06 17:14 60.28591 5.22519 171 ft 2 kts 21°
2026-05-06 17:14 60.28575 5.22512 171 ft 2 kts 356°
2026-05-06 17:14 60.28566 5.22514 171 ft 0 kts 350°
2026-05-06 17:15 60.28565 5.22514 170 ft 0 kts 349°
2026-05-06 17:17 60.28569 5.22512 171 ft 3 kts 349°
2026-05-06 17:17 60.28612 5.22498 172 ft 6 kts 351°
2026-05-06 17:17 60.28656 5.22483 174 ft 6 kts 348°
2026-05-06 17:17 60.28675 5.22463 174 ft 1 kts 324°
2026-05-06 17:18 60.28687 5.22413 173 ft 7 kts 293°
2026-05-06 17:18 60.28733 5.22349 173 ft 10 kts 342°
2026-05-06 17:18 60.28815 5.22316 174 ft 13 kts 349°
2026-05-06 17:18 60.28911 5.22282 175 ft 14 kts 350°
2026-05-06 17:19 60.29012 5.22249 177 ft 15 kts 351°
2026-05-06 17:19 60.29118 5.22214 177 ft 17 kts 350°
2026-05-06 17:19 60.29254 5.22167 171 ft 22 kts 350°
2026-05-06 17:19 60.29424 5.22109 163 ft 27 kts 351°
2026-05-06 17:20 60.29621 5.22042 156 ft 30 kts 351°
2026-05-06 17:20 60.29814 5.21976 154 ft 27 kts 351°
2026-05-06 17:20 60.29995 5.21915 161 ft 25 kts 350°
2026-05-06 17:20 60.30161 5.21861 168 ft 23 kts 351°
2026-05-06 17:21 60.30313 5.21810 175 ft 21 kts 351°
2026-05-06 17:21 60.30448 5.21763 181 ft 19 kts 350°
2026-05-06 17:21 60.30557 5.21728 198 ft 15 kts 351°
2026-05-06 17:21 60.30645 5.21677 203 ft 9 kts 321°
2026-05-06 17:22 60.30657 5.21622 201 ft 0 kts 276°
2026-05-06 17:24 60.30658 5.21607 184 ft 6 kts 275°
2026-05-06 17:24 60.30651 5.21459 182 ft 10 kts 256°
2026-05-06 17:25 60.30613 5.21395 181 ft 4 kts 185°
2026-05-06 17:25 60.30600 5.21399 181 ft 3 kts 174°
2026-05-06 17:25 60.30536 5.21417 180 ft 28 kts 171°
2026-05-06 17:25 60.30123 5.21556 166 ft 92 kts 171°
2026-05-06 17:26 60.29313 5.21828 162 ft 145 kts 171°
2026-05-06 17:26 60.28213 5.22187 526 ft 169 kts 171°
2026-05-06 17:26 60.27026 5.22584 1261 ft 177 kts 173°
2026-05-06 17:26 60.25779 5.23048 1828 ft 193 kts 173°
2026-05-06 17:27 60.24368 5.23528 2212 ft 218 kts 174°
2026-05-06 17:27 60.22792 5.24028 2591 ft 239 kts 173°
2026-05-06 17:27 60.21115 5.24571 3153 ft 249 kts 173°
2026-05-06 17:27 60.19364 5.25147 3740 ft 260 kts 172°
2026-05-06 17:28 60.17566 5.25745 4585 ft 264 kts 173°
2026-05-06 17:28 60.15738 5.26351 5393 ft 267 kts 173°
2026-05-06 17:28 60.13899 5.26969 6014 ft 270 kts 172°
2026-05-06 17:28 60.12093 5.28111 6869 ft 276 kts 153°
2026-05-06 17:29 60.10648 5.30669 7730 ft 282 kts 124°
2026-05-06 17:29 60.09984 5.34338 8605 ft 285 kts 94°
2026-05-06 17:29 60.10135 5.38298 9475 ft 287 kts 75°
2026-05-06 17:29 60.10945 5.41934 10267 ft 287 kts 51°
2026-05-06 17:30 60.11853 5.43837 10738 ft 286 kts 34°
2026-05-06 17:30 60.13652 5.45619 11205 ft 296 kts
2026-05-06 17:30 60.15744 5.45828 11509 ft 310 kts 353°
2026-05-06 17:30 60.17956 5.45393 11836 ft 327 kts 350°
2026-05-06 17:31 60.20252 5.44865 12414 ft 336 kts 350°
2026-05-06 17:31 60.22594 5.44354 13185 ft 340 kts 350°
2026-05-06 17:31 60.24960 5.43861 13974 ft 343 kts 350°
2026-05-06 17:31 60.27350 5.43376 14622 ft 347 kts 349°
2026-05-06 17:32 60.29771 5.42897 15289 ft 352 kts 348°
2026-05-06 17:32 60.32218 5.42415 15974 ft 355 kts 348°
2026-05-06 17:32 60.34692 5.41928 16636 ft 359 kts 347°
2026-05-06 17:32 60.37191 5.41437 17020 ft 362 kts 347°
2026-05-06 17:33 60.39711 5.40964 17452 ft 367 kts 348°
2026-05-06 17:33 60.42301 5.41125 18196 ft 380 kts 359°
2026-05-06 17:33 60.44907 5.42622 18803 ft 402 kts 15°
2026-05-06 17:33 60.47383 5.45495 19301 ft 417 kts 25°
2026-05-06 17:34 60.49800 5.48831 19814 ft 424 kts 26°
2026-05-06 17:34 60.52225 5.52292 20332 ft 429 kts 27°
2026-05-06 17:34 60.54672 5.55803 20854 ft 433 kts 27°
2026-05-06 17:34 60.57141 5.59350 21333 ft 437 kts 27°
2026-05-06 17:35 60.59638 5.62936 21871 ft 441 kts 27°
2026-05-06 17:35 60.62157 5.66559 22357 ft 445 kts 26°
2026-05-06 17:35 60.64695 5.70210 22981 ft 447 kts 27°
2026-05-06 17:36 60.69787 5.77564 23948 ft 453 kts 27°
2026-05-06 17:36 60.72367 5.81296 24360 ft 456 kts 28°
2026-05-06 17:36 60.74966 5.85064 24752 ft 460 kts 28°
2026-05-06 17:36 60.77578 5.88864 25177 ft 463 kts 28°
2026-05-06 17:37 60.80215 5.92708 25606 ft 466 kts 28°
2026-05-06 17:37 60.82862 5.96571 25990 ft 469 kts 28°
2026-05-06 17:37 60.85534 6.00482 26382 ft 473 kts 29°
2026-05-06 17:37 60.88218 6.04413 26793 ft 476 kts 29°
2026-05-06 17:38 60.90919 6.08380 27230 ft 479 kts 30°
2026-05-06 17:38 60.93619 6.12360 27874 ft 476 kts 31°
2026-05-06 17:38 60.96308 6.16331 28290 ft 478 kts 31°
2026-05-06 17:38 60.99029 6.20350 28587 ft 483 kts 31°
2026-05-06 17:39 61.01765 6.24402 28905 ft 486 kts 31°
2026-05-06 17:39 61.04519 6.28490 29264 ft 489 kts 31°
2026-05-06 17:39 61.07258 6.32565 29581 ft 492 kts 31°
2026-05-06 17:39 61.10044 6.36717 29888 ft 496 kts 31°
2026-05-06 17:40 61.12854 6.40917 30174 ft 499 kts 31°
2026-05-06 17:40 61.15671 6.45138 30474 ft 501 kts 31°
2026-05-06 17:40 61.18501 6.49386 30799 ft 504 kts 32°
2026-05-06 17:40 61.21323 6.53705 31138 ft 505 kts 35°
2026-05-06 17:41 61.23962 6.58562 31474 ft 508 kts 40°
2026-05-06 17:41 61.26521 6.63614 31912 ft 507 kts 41°
2026-05-06 17:41 61.29044 6.68753 32320 ft 507 kts 42°
2026-05-06 17:41 61.31542 6.73940 32716 ft 507 kts 42°
2026-05-06 17:42 61.34029 6.79153 33124 ft 507 kts 42°
2026-05-06 17:42 61.36510 6.84371 33476 ft 507 kts 43°
2026-05-06 17:42 61.38988 6.89584 33817 ft 507 kts 43°
2026-05-06 17:42 61.41471 6.94802 34139 ft 506 kts 43°
2026-05-06 17:43 61.43955 7.00030 34417 ft 507 kts 43°
2026-05-06 17:43 61.46431 7.05259 34647 ft 507 kts 43°
2026-05-06 17:43 61.48920 7.10525 34864 ft 510 kts 43°
2026-05-06 17:43 61.51413 7.15818 34960 ft 509 kts 43°
2026-05-06 17:44 61.56336 7.26311 34974 ft 503 kts 43°
2026-05-06 17:44 61.61229 7.36787 34975 ft 502 kts 43°
2026-05-06 17:45 61.66112 7.47296 34972 ft 502 kts 43°
2026-05-06 17:45 61.70987 7.57838 34987 ft 502 kts 43°
2026-05-06 17:46 61.75842 7.68386 34975 ft 500 kts 44°
2026-05-06 17:46 61.80674 7.78934 34977 ft 499 kts 44°
2026-05-06 17:47 61.85496 7.89514 34963 ft 499 kts 44°
2026-05-06 17:47 61.90289 8.00078 34974 ft 502 kts 44°
2026-05-06 17:48 61.95159 8.10865 34963 ft 503 kts 44°
2026-05-06 17:48 61.99957 8.21546 34970 ft 502 kts 44°
2026-05-06 17:49 62.04764 8.32299 34758 ft 500 kts 44°
2026-05-06 17:49 62.07165 8.37688 34148 ft 502 kts 44°
2026-05-06 17:49 62.09605 8.43180 33525 ft 504 kts 44°
2026-05-06 17:50 62.12020 8.48628 32944 ft 507 kts 44°
2026-05-06 17:50 62.14417 8.54049 32379 ft 509 kts 44°
2026-05-06 17:50 62.16880 8.59633 31782 ft 511 kts 44°
2026-05-06 17:50 62.19286 8.65105 31272 ft 510 kts 44°
2026-05-06 17:51 62.21718 8.70648 30653 ft 509 kts 44°
2026-05-06 17:51 62.24130 8.76160 30167 ft 504 kts 44°
2026-05-06 17:51 62.26516 8.81627 29652 ft 500 kts 45°
2026-05-06 17:51 62.28876 8.87049 29240 ft 492 kts 45°
2026-05-06 17:52 62.31197 8.92396 28741 ft 486 kts 45°
2026-05-06 17:52 62.33489 8.97685 28248 ft 481 kts 45°
2026-05-06 17:52 62.35754 9.02920 27751 ft 475 kts 45°
2026-05-06 17:52 62.37994 9.08108 27276 ft 470 kts 45°
2026-05-06 17:53 62.40204 9.13244 26801 ft 464 kts 45°
2026-05-06 17:53 62.42383 9.18322 26333 ft 459 kts 45°
2026-05-06 17:53 62.44538 9.23353 25875 ft 454 kts 45°
2026-05-06 17:53 62.46666 9.28333 25426 ft 448 kts 45°
2026-05-06 17:54 62.48771 9.33270 24970 ft 443 kts 45°
2026-05-06 17:54 62.50846 9.38146 24542 ft 438 kts 45°
2026-05-06 17:54 62.52895 9.42973 24167 ft 432 kts 46°
2026-05-06 17:54 62.54917 9.47747 23755 ft 427 kts 46°
2026-05-06 17:55 62.56914 9.52470 23266 ft 423 kts 46°
2026-05-06 17:55 62.58888 9.57150 22749 ft 418 kts 46°
2026-05-06 17:55 62.60836 9.61778 22215 ft 413 kts 46°
2026-05-06 17:55 62.62764 9.66369 21755 ft 408 kts 47°
2026-05-06 17:56 62.64658 9.70887 21282 ft 403 kts 47°
2026-05-06 17:56 62.66538 9.75381 20745 ft 399 kts 47°
2026-05-06 17:56 62.68399 9.79838 20200 ft 397 kts 47°
2026-05-06 17:56 62.70245 9.84268 19715 ft 393 kts 47°
2026-05-06 17:57 62.72067 9.88651 19186 ft 389 kts 47°
2026-05-06 17:57 62.73875 9.93007 18720 ft 385 kts 48°
2026-05-06 17:57 62.75659 9.97313 18292 ft 380 kts 48°
2026-05-06 17:57 62.77422 10.01579 17705 ft 377 kts 48°
2026-05-06 17:58 62.79176 10.05831 17064 ft 377 kts 48°
2026-05-06 17:58 62.80924 10.10075 16463 ft 375 kts 48°
2026-05-06 17:58 62.82660 10.14301 15930 ft 371 kts 48°
2026-05-06 17:58 62.84379 10.18490 15377 ft 369 kts 48°
2026-05-06 17:59 62.86086 10.22660 14835 ft 366 kts 48°
2026-05-06 17:59 62.87780 10.26805 14290 ft 364 kts 48°
2026-05-06 17:59 62.89457 10.30917 13847 ft 359 kts 48°
2026-05-06 17:59 62.91096 10.34943 13626 ft 348 kts 48°
2026-05-06 18:00 62.92675 10.38829 13439 ft 336 kts 48°
2026-05-06 18:00 62.94188 10.42559 13152 ft 328 kts 48°
2026-05-06 18:00 62.95682 10.46247 12965 ft 317 kts 48°
2026-05-06 18:00 62.97124 10.49815 12791 ft 307 kts 48°
2026-05-06 18:01 62.98527 10.53291 12518 ft 301 kts 48°
2026-05-06 18:01 62.99912 10.56726 12182 ft 298 kts 48°
2026-05-06 18:01 63.01284 10.60136 11811 ft 296 kts 48°
2026-05-06 18:01 63.02645 10.63521 11447 ft 294 kts 48°
2026-05-06 18:02 63.03997 10.66892 11080 ft 293 kts 48°
2026-05-06 18:02 63.05346 10.70258 10702 ft 292 kts 48°
2026-05-06 18:02 63.06682 10.73599 10358 ft 290 kts 48°
2026-05-06 18:02 63.08011 10.76926 9998 ft 288 kts 48°
2026-05-06 18:03 63.09335 10.80245 9642 ft 287 kts 48°
2026-05-06 18:03 63.10649 10.83544 9356 ft 286 kts 48°
2026-05-06 18:03 63.11958 10.86836 9089 ft 285 kts 49°
2026-05-06 18:03 63.13264 10.90125 8822 ft 284 kts 48°
2026-05-06 18:04 63.14564 10.93403 8542 ft 283 kts 48°
2026-05-06 18:04 63.15856 10.96668 8263 ft 282 kts 48°
2026-05-06 18:04 63.17129 10.99888 8103 ft 273 kts 48°
2026-05-06 18:04 63.18353 11.02991 7966 ft 264 kts 48°
2026-05-06 18:05 63.19546 11.06017 7720 ft 259 kts 48°
2026-05-06 18:05 63.20725 11.09013 7439 ft 257 kts 48°
2026-05-06 18:05 63.21876 11.11941 7176 ft 254 kts 48°
2026-05-06 18:05 63.23052 11.14934 6863 ft 254 kts 48°
2026-05-06 18:06 63.24192 11.17841 6597 ft 252 kts 48°
2026-05-06 18:06 63.25338 11.20770 6383 ft 249 kts 48°
2026-05-06 18:06 63.26472 11.23666 6100 ft 248 kts 47°
2026-05-06 18:06 63.27588 11.26522 5826 ft 241 kts 47°
2026-05-06 18:07 63.28675 11.29311 5517 ft 237 kts 48°
2026-05-06 18:07 63.29748 11.32065 5209 ft 235 kts 47°
2026-05-06 18:07 63.30823 11.34826 4944 ft 237 kts 47°
2026-05-06 18:07 63.31905 11.37610 4856 ft 238 kts 47°
2026-05-06 18:08 63.32990 11.40406 4992 ft 238 kts 47°
2026-05-06 18:08 63.34069 11.43189 4997 ft 237 kts 47°
2026-05-06 18:08 63.35146 11.45970 4996 ft 237 kts 47°
2026-05-06 18:08 63.36251 11.48699 4994 ft 237 kts 41°
2026-05-06 18:09 63.37642 11.50562 4995 ft 233 kts 14°
2026-05-06 18:09 63.39229 11.50755 4738 ft 229 kts 345°
2026-05-06 18:09 63.40620 11.49191 4379 ft 224 kts 320°
2026-05-06 18:09 63.41754 11.46833 4078 ft 222 kts 313°
2026-05-06 18:10 63.42826 11.44364 4001 ft 222 kts 313°
2026-05-06 18:10 63.43900 11.41886 3997 ft 222 kts 313°
2026-05-06 18:10 63.44937 11.39354 3992 ft 221 kts 301°
2026-05-06 18:10 63.45533 11.36215 3993 ft 218 kts 284°
2026-05-06 18:11 63.45716 11.32977 3983 ft 203 kts 271°
2026-05-06 18:11 63.45702 11.30933 3930 ft 195 kts 268°
2026-05-06 18:11 63.45683 11.26923 3554 ft 191 kts 270°
2026-05-06 18:11 63.45697 11.23991 3213 ft 186 kts 271°
2026-05-06 18:12 63.45702 11.21123 2904 ft 182 kts 270°
2026-05-06 18:12 63.45706 11.18349 2596 ft 172 kts 270°
2026-05-06 18:12 63.45711 11.15774 2333 ft 159 kts 270°
2026-05-06 18:12 63.45716 11.13404 2088 ft 147 kts 270°
2026-05-06 18:13 63.45720 11.11200 1856 ft 136 kts 270°
2026-05-06 18:13 63.45724 11.09132 1661 ft 132 kts 270°
2026-05-06 18:13 63.45734 11.07084 1451 ft 132 kts 270°
2026-05-06 18:13 63.45728 11.05041 1229 ft 133 kts 270°
2026-05-06 18:14 63.45736 11.02958 1008 ft 135 kts 270°
2026-05-06 18:14 63.45746 11.00875 791 ft 134 kts 269°
2026-05-06 18:14 63.45754 10.98808 572 ft 132 kts 269°
2026-05-06 18:14 63.45754 10.96775 356 ft 130 kts 268°
2026-05-06 18:15 63.45750 10.94758 156 ft 130 kts 269°
2026-05-06 18:15 63.45756 10.92797 55 ft 114 kts 270°
2026-05-06 18:15 63.45762 10.91591 51 ft 41 kts 271°
2026-05-06 18:15 63.45762 10.90978 46 ft 38 kts 270°
2026-05-06 18:16 63.45728 10.90531 41 ft 16 kts 246°
2026-05-06 18:16 63.45657 10.90383 40 ft 12 kts 191°
2026-05-06 18:16 63.45647 10.90381 40 ft 1 kts 185°
2026-05-06 18:16 63.45637 10.90379 40 ft 3 kts 185°
2026-05-06 18:17 63.45615 10.90401 40 ft 4 kts 140°
2026-05-06 18:17 63.45603 10.90458 41 ft 4 kts 105°
2026-05-06 18:17 63.45600 10.90540 41 ft 6 kts 90°
2026-05-06 18:17 63.45599 10.90646 42 ft 8 kts 91°
2026-05-06 18:18 63.45598 10.90778 43 ft 9 kts 90°
2026-05-06 18:18 63.45597 10.90934 45 ft 11 kts 90°
2026-05-06 18:18 63.45597 10.91112 46 ft 12 kts 90°
2026-05-06 18:18 63.45597 10.91312 48 ft 13 kts 90°
2026-05-06 18:19 63.45596 10.91515 49 ft 13 kts 90°
2026-05-06 18:19 63.45596 10.91716 46 ft 13 kts 91°
2026-05-06 18:19 63.45595 10.91895 47 ft 11 kts 91°
2026-05-06 18:19 63.45596 10.92018 48 ft 6 kts 90°
2026-05-06 18:20 63.45595 10.92124 49 ft 8 kts 90°
2026-05-06 18:20 63.45595 10.92248 50 ft 8 kts 91°
2026-05-06 18:20 63.45594 10.92360 51 ft 5 kts 96°
2026-05-06 18:20 63.45573 10.92413 49 ft 4 kts 151°
2026-05-06 18:21 63.45545 10.92422 52 ft 5 kts 174°
2026-05-06 18:21 63.45513 10.92429 52 ft 1 kts 168°
2026-05-06 18:21 63.45510 10.92439 53 ft 1 kts 137°
2026-05-06 18:21 63.45509 10.92461 50 ft 4 kts 102°
2026-05-06 18:22 63.45505 10.92542 57 ft 0 kts 90°
2026-05-06 18:22 63.45505 10.92543 57 ft 0 kts 90°